Weather History for Amritsar, India

Change the Weather History Date:

Saturday, December 14, 2013

  Actual Average Record
Temperature  
Mean Temperature 58 °F -  
Max Temperature 71 °F 65 °F 73 °F (1999)
Min Temperature 44 °F 42 °F 33 °F (2005)
Degree Days  
Heating Degree Days 8    
Growing Degree Days 8 (Base 50)    
Moisture  
Dew Point 52 °F    
Average Humidity 90    
Maximum Humidity 100    
Minimum Humidity 59    
Precipitation  
Precipitation 0.00 in - - ()
Sea Level Pressure  
Sea Level Pressure 29.88 in    
Wind  
Wind Speed 0 mph ()    
Max Wind Speed 5 mph    
Max Gust Speed -    
Visibility 0.7 miles    
Events Fog    
Averages and records for this station are not official NWS values.
T = Trace of Precipitation, MM = Missing Value Source: Averaged Metar Reports

Daily Weather History Graph

Daily Weather History Graph

Search for Another Location

Airport:

Trip Planner

Search our weather history database for the weather conditions in past years. The results will help you decide how hot, cold, wet, or windy it might be!

Date:

Astronomy

Dec. 14, 2013 Rise Set
Actual Time 7:22 AM IST 5:28 PM IST
Civil Twilight 6:55 AM IST 5:55 PM IST
Nautical Twilight 6:25 AM IST 6:25 PM IST
Astronomical Twilight 5:55 AM IST 6:55 PM IST
Moon 3:25 PM IST (12/14) 4:24 AM IST (12/14)
Length of Visible Light 10h 59m
Length of Day
10h 06m
Waxing Gibbous, 91% of the Moon is Illuminated
Dec 14
Waxing Gibbous
Dec 17
Full
Dec 25
Last Quarter
Jan 1
New
Jan 8
First Quarter

Hourly Weather History & Observations

Time (IST) Temp. Dew Point Humidity Pressure Visibility Wind Dir Wind Speed Gust Speed Precip Events Conditions
12:00 AM 51.8 °F 51.8 °F 100% 29.89 in 0.7 mi Calm Calm - N/A   Scattered Clouds
12:30 AM 50.0 °F 50.0 °F 100% 29.86 in 0.7 mi Calm Calm - N/A   Scattered Clouds
1:00 AM 50.0 °F 50.0 °F 100% 29.86 in 0.7 mi Calm Calm - N/A   Scattered Clouds
1:30 AM 48.2 °F 48.2 °F 100% 29.86 in 0.7 mi Calm Calm - N/A   Scattered Clouds
2:00 AM 48.2 °F 48.2 °F 100% 29.86 in 0.7 mi Calm Calm - N/A   Scattered Clouds
2:30 AM 48 °F 48 °F 100% 29.88 in 1 mi Calm Calm - -   Mist
2:30 AM 48.2 °F 48.2 °F 100% 29.86 in 0.7 mi Calm Calm - N/A   Scattered Clouds
3:00 AM 48.2 °F 48.2 °F 100% 29.86 in 0.7 mi Calm Calm - N/A   Scattered Clouds
3:30 AM 48.2 °F 48.2 °F 100% 29.86 in 0.7 mi Calm Calm - N/A   Scattered Clouds
4:00 AM 46.4 °F 46.4 °F 100% 29.83 in 0.7 mi Calm Calm - N/A   Scattered Clouds
4:30 AM 46.4 °F 46.4 °F 100% 29.83 in 0.7 mi Calm Calm - N/A   Scattered Clouds
5:00 AM 46.4 °F 46.4 °F 100% 29.83 in 0.7 mi Calm Calm - N/A   Scattered Clouds
5:30 AM 45 °F 45 °F 100% 29.86 in 0 mi Calm Calm - - Fog Partial Fog
5:30 AM 44.6 °F 44.6 °F 100% 29.83 in 0.6 mi Calm Calm - N/A   Scattered Clouds
6:00 AM 44.6 °F 44.6 °F 100% 29.83 in 0.4 mi Calm Calm - N/A Fog Fog
6:30 AM 44.6 °F 44.6 °F 100% 29.83 in 0.4 mi Calm Calm - N/A Fog Fog
7:00 AM 44.6 °F 44.6 °F 100% 29.86 in 0.6 mi Calm Calm - N/A   Scattered Clouds
7:30 AM 44.6 °F 44.6 °F 100% 29.86 in 0.3 mi Calm Calm - N/A Fog Fog
8:00 AM 44.6 °F 44.6 °F 100% 29.86 in 0.3 mi Variable 2.3 mph - N/A Fog Fog
8:30 AM 46.4 °F 46.4 °F 100% 29.89 in 0.3 mi Calm Calm - N/A Fog Fog
9:00 AM 50.0 °F 50.0 °F 100% 29.89 in 0.3 mi Calm Calm - N/A Fog Fog
9:30 AM 53.6 °F 53.6 °F 100% 29.92 in 0.3 mi Calm Calm - N/A Fog Fog
10:00 AM 57.2 °F 57.2 °F 100% 29.92 in 0.3 mi Calm Calm - N/A Fog Fog
10:30 AM 59.0 °F 59.0 °F 100% 29.92 in 0.3 mi Calm Calm - N/A Fog Fog
11:00 AM 60.8 °F 59.0 °F 94% 29.92 in 0.5 mi Variable 1.2 mph - N/A Fog Fog
11:30 AM 61 °F 58 °F 87% 29.91 in 1 mi NE 4.6 mph - -   Mist
11:30 AM 60.8 °F 59.0 °F 94% 29.92 in 0.7 mi NE 4.6 mph - N/A Fog Fog
12:00 PM 59.0 °F 53.6 °F 82% 29.89 in 0.7 mi ENE 3.5 mph - N/A Fog Fog
12:30 PM 66.2 °F 59.0 °F 78% 29.89 in 0.7 mi Variable 2.3 mph - N/A   Scattered Clouds
1:00 PM 66.2 °F 57.2 °F 73% 29.86 in 0.7 mi Variable 1.2 mph - N/A   Scattered Clouds
1:30 PM 66.2 °F 57.2 °F 73% 29.86 in 0.7 mi Variable 2.3 mph - N/A   Haze
2:00 PM 68.0 °F 57.2 °F 68% 29.86 in 0.9 mi Calm Calm - N/A   Haze
2:30 PM 69 °F 58 °F 59% 29.82 in 1 mi 3.5 mph - -   Haze
2:30 PM 68.0 °F 57.2 °F 68% 29.83 in 0.9 mi Variable 3.5 mph - N/A   Haze
3:00 PM 69.8 °F 55.4 °F 60% 29.83 in 0.9 mi Variable 3.5 mph - N/A   Haze
3:30 PM 69.8 °F 55.4 °F 60% 29.83 in 0.9 mi Variable 1.2 mph - N/A   Haze
4:00 PM 69.8 °F 55.4 °F 60% 29.83 in 1.1 mi Calm Calm - N/A   Haze
4:30 PM 68.0 °F 55.4 °F 64% 29.83 in 1.1 mi Calm Calm - N/A   Haze
5:00 PM 66.2 °F 57.2 °F 73% 29.86 in 1.1 mi Calm Calm - N/A   Haze
5:30 PM 64 °F 57 °F 70% 29.85 in 1 mi Calm Calm - -   Mist
5:30 PM 64.4 °F 57.2 °F 77% 29.86 in 1.0 mi Calm Calm - N/A   Haze
6:00 PM 60.8 °F 57.2 °F 88% 29.86 in 1.0 mi Calm Calm - N/A   Haze
6:30 PM 60.8 °F 55.4 °F 82% 29.86 in 1.0 mi Calm Calm - N/A   Partly Cloudy
7:00 PM 59.0 °F 57.2 °F 94% 29.89 in 0.8 mi Calm Calm - N/A   Partly Cloudy
7:30 PM 57.2 °F 57.2 °F 100% 29.89 in 0.7 mi Calm Calm - N/A   Partly Cloudy
8:00 PM 55.4 °F 53.6 °F 94% 29.89 in 1.0 mi Calm Calm - N/A   Mist
8:30 PM 55.4 °F 51.8 °F 88% 29.92 in 1.0 mi Calm Calm - N/A   Mist
9:00 PM 55.4 °F 51.8 °F 88% 29.92 in 1.0 mi Calm Calm - N/A   Mist
9:30 PM 55.4 °F 51.8 °F 88% 29.92 in 1.0 mi Calm Calm - N/A   Mist
10:00 PM 53.6 °F 51.8 °F 94% 29.95 in 0.9 mi Calm Calm - N/A   Mist
10:30 PM 53.6 °F 51.8 °F 94% 29.95 in 0.9 mi Calm Calm - N/A   Mist
11:00 PM 53.6 °F 51.8 °F 94% 29.95 in 0.9 mi Calm Calm - N/A   Mist
11:30 PM 53 °F 53 °F 99% 29.96 in 1 mi Calm Calm - -   Mist
11:30 PM 53.6 °F 53.6 °F 100% 29.95 in 0.9 mi Calm Calm - N/A   Mist